Easley, South Carolina, United States (29640)
Lat: 34.83N, Lon: 82.6W
Wx Zone: SCZ005
Local Info
Past Weather Observations for Today

NOTE: This archive is for the closest National Weather Service station to Easley. Information may differ from the station used for current weather conditions.

Click here for Long-term Archive

Time Weather Temperature Dewpoint Humidity Pressure Winds Precip Visibility
13:10
Overcast
61°F / 16°C 55°F / 13°C 83% 29.98 in
(1015 mb)
SW 10.4 mph
(SW 17 kph)
- 9SM
12:53
Overcast
59°F / 15°C 55°F / 13°C 88% 29.98 in
(1015 mb)
SW 16.1 mph
(SW 26 kph)
- 7SM
11:53
Overcast
57°F / 14°C 55°F / 13°C 94% 30.01 in
(1016 mb)
SW 13.8 mph
(SW 22 kph)
- 8SM
10:56
Overcast
Fog And Mist
55°F / 13°C 54°F / 12°C 94% 30.01 in
(1016 mb)
SW 13.8 mph
(SW 22 kph)
- 3SM
10:53
Overcast
Fog And Mist
55°F / 13°C 54°F / 12°C 94% 30.04 in
(1017 mb)
SW 13.8 mph
(SW 22 kph)
- 2 1/2SM
10:49
Overcast
Fog And Mist
55°F / 13°C 54°F / 12°C 94% 30.04 in
(1017 mb)
SW 16.1 mph
(SW 26 kph)
- 2SM
10:33
Overcast
Fog And Mist
55°F / 13°C 54°F / 12°C 94% 30.01 in
(1016 mb)
SW 11.5 mph
(SW 19 kph)
- 1 1/4SM
09:53
Obscured
Fog And Mist
54°F / 12°C 52°F / 11°C 94% 30.04 in
(1017 mb)
SW 13.8 mph
(SW 22 kph)
- 3/4SM
08:53
Obscured
Fog
52°F / 11°C 52°F / 11°C 100% 30.04 in
(1017 mb)
SW 10.4 mph
(SW 17 kph)
- 1/2SM
07:53
Obscured
Fog
52°F / 11°C 50°F / 10°C 94% 30.04 in
(1017 mb)
SW 9.2 mph
(SW 15 kph)
- 1/2SM
07:01
Obscured
Fog
50°F / 10°C 48°F / 9°C 94% 30.04 in
(1017 mb)
SW 9.2 mph
(SW 15 kph)
- 1/2SM
06:53
Overcast
Fog And Mist
50°F / 10°C 48°F / 9°C 94% 30.04 in
(1017 mb)
SW 9.2 mph
(SW 15 kph)
- 1SM
05:57
Overcast
Fog And Mist
48°F / 9°C 48°F / 9°C 100% 30.04 in
(1017 mb)
SW 9.2 mph
(SW 15 kph)
- 6SM
05:50
Overcast
Fog And Mist
48°F / 9°C 46°F / 8°C 94% 30.04 in
(1017 mb)
SW 9.2 mph
(SW 15 kph)
- 2 1/2SM
05:49
Overcast
Fog And Mist
48°F / 9°C 46°F / 8°C 94% 30.04 in
(1017 mb)
SW 9.2 mph
(SW 15 kph)
- 2SM
04:53
Obscured
Fog
46°F / 8°C 46°F / 8°C 100% 30.04 in
(1017 mb)
SW 8.1 mph
(SW 13 kph)
- 1/2SM
03:53
Obscured
Fog
46°F / 8°C 45°F / 7°C 93% 30.04 in
(1017 mb)
SW 5.8 mph
(SW 9 kph)
- 1/2SM
02:53
Obscured
Fog And Mist
45°F / 7°C 43°F / 6°C 93% 30.06 in
(1018 mb)
SW 5.8 mph
(SW 9 kph)
- 3/4SM
02:35
Obscured
Fog And Mist
45°F / 7°C 43°F / 6°C 93% 30.06 in
(1018 mb)
SSW 5.8 mph
(SSW 9 kph)
- 3/4SM
01:53
Overcast
Fog And Mist
45°F / 7°C 43°F / 6°C 93% 30.06 in
(1018 mb)
SW 4.6 mph
(SW 7 kph)
- 1 1/4SM
01:44
Overcast
Fog And Mist
45°F / 7°C 43°F / 6°C 93% 30.06 in
(1018 mb)
SW 5.8 mph
(SW 9 kph)
- 1 1/2SM
01:35
Overcast
Fog And Mist
45°F / 7°C 43°F / 6°C 93% 30.09 in
(1019 mb)
SW 4.6 mph
(SW 7 kph)
- 2SM
00:53
Overcast
Fog And Mist
45°F / 7°C 43°F / 6°C 93% 30.09 in
(1019 mb)
SW 3.5 mph
(SW 6 kph)
0.03 in
(0.76 mm)
3SM
00:48
Overcast
Light Rain
45°F / 7°C 43°F / 6°C 93% 30.09 in
(1019 mb)
SW 3.5 mph
(SW 6 kph)
0.03 in
(0.76 mm)
2SM
00:41
Overcast
Light Rain
45°F / 7°C 43°F / 6°C 93% 30.09 in
(1019 mb)
S 3.5 mph
(S 6 kph)
0.03 in
(0.76 mm)
1 3/4SM
00:04
Obscured
Fog And Mist
45°F / 7°C 43°F / 6°C 93% 30.09 in
(1019 mb)
SSW 4.6 mph
(SSW 7 kph)
- 3/4SM
Time Weather Temperature Dewpoint Humidity Pressure Winds Precip Visibility


Weather for websites

WeatherForYou.com, LLC is not responsible for any damages or problems caused by this service. Current weather conditions are obtained from the closest station including government and personal stations which may have varying degrees of accuracy. Weather forecasts are derived from the NOAA NDFD. Like all things, this site belongs to Jesus Christ... He just trusts me to maintain it. If you have any questions or comments email webmaster@weatherforyou.com

Copyright © 2015, WeatherForYou.com LLC. All rights reserved.